Torna al catalogo

STARLINK-3320

AttivoComunicazioniVLEO
NORAD 50839·PAYLOAD·🇺🇸 United States

Lanciato Jan 6, 2022 da Cape Canaveral Space Force Station

Loading…

Prossimi Passaggi (prossime 24 ore)

TLE

AggiornatoSource: CelesTrak SupGP

Epoca: Sep 14, 2026, 19:56 UTC

1 50839C 22001AN  26257.83104167  .00054324  00000+0  17473-2 0  2570
2 50839  53.1589  36.1547 0001053  80.2522  62.4053 15.31668518    17

Traccia STARLINK-3320 in tempo reale con AllMySat

Download on the App Store